Regional Weather Roundup
Issued by NWS Goodland, KS

Home | Current Version | Previous Version | Text Only | Print | Product List | Glossary On
Versions: 1 2 3 4 5 6 7 8 9 10 11 12 13 14 15 16 17 18 19 20 21 22 23 24 25 26 27 28 29 30 31 32 33 34 35 36 37 38 39 40 41 42 43 44 45 46 47 48 49 50
132
ASUS43 KGLD 261708
RWRGLD

GOODLAND FORECAST AREA HOURLY WEATHER ROUNDUP
NATIONAL WEATHER SERVICE GOODLAND KS
1100 AM MDT SUN MAR 26 2017

...OFFICIAL OBSERVATIONS...

CITY           SKY/WX    TMP DP  RH WIND       PRES   REMARKS
GOODLAND KS    CLOUDY    41  40  96 E12       29.85R
HILL CITY KS   CLOUDY    44  42  93 E13       29.90S
IMPERIAL NEB   LGT RAIN  42  39  89 NE6       29.90R
MCCOOK NEB     CLOUDY    42  40  92 N6        29.91R
AKRON CO       CLOUDY    47  38  71 N13       29.89S
BURLINGTON CO  CLOUDY    44  40  85 E14       29.85R
LIMON CO       CLOUDY    44  38  79 N13       29.86R
$$

...UNOFFICIAL OBSERVATIONS...

CITY           SKY/WX    TMP DP  RH WIND       PRES   REMARKS
LENORA KS        N/A     42  32  68 CALM        N/A
NORTON KS      CLOUDY    43  36  75 NE7       29.90S
SHARON SPRINGS   N/A     39  38  97 E10G17      N/A
TRENTON NEB      N/A     41  32  70 CALM        N/A
YUMA CO        CLOUDY    45  41  87 NW8       29.89R
$$




USA.gov is the U.S. government's official web portal to all federal, state and local government web resources and services.